Beaver Falls, PA

3:37 AM EST on November 19, 2019 (GMT -0500)
Beaver County

Weather History for KBVI - September, 2019

Change the Weather History Date:

Friday, September 27, 2019

  Actual Average Record
Temperature  
Mean Temperature 66 °F -  
Max Temperature 83 °F 66 °F 93 °F (2017)
Min Temperature 50 °F 49 °F 41 °F (1997)
Cooling Degree Days 2    
Growing Degree Days 16 (Base 50)    
Moisture  
Dew Point 45 °F    
Average Humidity 52    
Maximum Humidity 87    
Minimum Humidity 23    
Precipitation  
Precipitation 0.00 in - - ()
Sea Level Pressure  
Sea Level Pressure 30.03 in    
Wind  
Wind Speed 5 mph (SSE)    
Max Wind Speed 14 mph    
Max Gust Speed 20 mph    
Visibility 10 miles    
Events      
Averages and records for this station are not official NWS values.
T = Trace of Precipitation, MM = Missing Value Source: NWS Daily Summary

Daily Weather History Graph

Daily Weather History Graph

Search for Another Location

Airport or City:

Astronomy

Sep. 27, 2019 Rise Set
Actual Time 7:13 AM EDT 7:10 PM EDT
Civil Twilight 6:46 AM EDT 7:37 PM EDT
Nautical Twilight 6:14 AM EDT 8:09 PM EDT
Astronomical Twilight 5:42 AM EDT 8:41 PM EDT
Moon 5:32 AM EDT (9/27) 7:01 PM EDT (9/27)
Length of Visible Light 12h 51m
Length of Day
11h 56m
Waning Crescent, 2% of the Moon is Illuminated
Sep 27
Waning Crescent
Sep 28
New
Oct 5
First Quarter
Oct 13
Full
Oct 21
Last Quarter

Hourly Weather History & Observations

Time (EDT) Temp. Dew Point Humidity Pressure Visibility Wind Dir Wind Speed Gust Speed Precip Events Conditions
12:15 AM 55.0 °F 45.3 °F 70% 30.03 in 10.0 mi Calm Calm - N/A   Clear
12:16 AM 54.9 °F 45.3 °F 70% 30.03 in 10.0 mi Calm Calm - N/A   Clear
12:35 AM 53.4 °F 45.9 °F 76% 30.03 in 10.0 mi Calm Calm - N/A   Clear
12:55 AM 52.9 °F 46.0 °F 78% 30.03 in 10.0 mi SSE 4.6 mph - N/A   Clear
1:15 AM 53.6 °F 45.9 °F 75% 30.03 in 10.0 mi SSE 3.5 mph - N/A   Clear
1:16 AM 53.6 °F 45.9 °F 75% 30.04 in 10.0 mi SSE 3.5 mph - N/A   Clear
1:35 AM 53.1 °F 46.6 °F 79% 30.04 in 10.0 mi SSE 4.6 mph - N/A   Clear
1:55 AM 52.2 °F 46.6 °F 81% 30.04 in 10.0 mi SSE 4.6 mph - N/A   Clear
2:15 AM 52.2 °F 47.5 °F 84% 30.04 in 10.0 mi SSE 4.6 mph - N/A   Clear
2:35 AM 52.7 °F 47.5 °F 82% 30.04 in 10.0 mi SSE 4.6 mph - N/A   Clear
2:36 AM 52.7 °F 47.5 °F 82% 30.04 in 10.0 mi SSE 4.6 mph - N/A   Clear
2:55 AM 52.7 °F 46.6 °F 80% 30.04 in 10.0 mi SSE 3.5 mph - N/A   Clear
3:15 AM 53.1 °F 46.0 °F 77% 30.04 in 10.0 mi South 4.6 mph - N/A   Clear
3:35 AM 53.1 °F 46.0 °F 77% 30.04 in 10.0 mi SSE 4.6 mph - N/A   Clear
3:36 AM 53.1 °F 45.9 °F 77% 30.04 in 10.0 mi SSE 4.6 mph - N/A   Clear
3:55 AM 52.7 °F 45.7 °F 77% 30.04 in 10.0 mi South 4.6 mph - N/A   Clear
4:15 AM 52.9 °F 45.5 °F 76% 30.04 in 10.0 mi SSE 4.6 mph - N/A   Clear
4:16 AM 52.9 °F 45.5 °F 76% 30.04 in 10.0 mi SSE 4.6 mph - N/A   Clear
4:35 AM 52.7 °F 45.1 °F 75% 30.04 in 10.0 mi SSE 4.6 mph - N/A   Clear
4:55 AM 51.4 °F 45.7 °F 81% 30.05 in 10.0 mi SSE 5.8 mph - N/A   Clear
4:56 AM 51.4 °F 45.7 °F 81% 30.05 in 10.0 mi SSE 5.8 mph - N/A   Clear
5:15 AM 50.9 °F 46.6 °F 85% 30.05 in 10.0 mi SSE 4.6 mph - N/A   Clear
5:35 AM 51.4 °F 47.3 °F 86% 30.06 in 10.0 mi SSE 4.6 mph - N/A   Clear
5:55 AM 51.4 °F 46.4 °F 83% 30.06 in 10.0 mi SSE 4.6 mph - N/A   Clear
5:56 AM 51.4 °F 46.4 °F 83% 30.06 in 10.0 mi SSE 4.6 mph - N/A   Clear
6:15 AM 51.8 °F 45.7 °F 80% 30.06 in 10.0 mi SSE 4.6 mph - N/A   Clear
6:35 AM 51.8 °F 45.5 °F 79% 30.06 in 10.0 mi SSE 3.5 mph - N/A   Clear
6:36 AM 51.8 °F 45.5 °F 79% 30.06 in 10.0 mi SSE 3.5 mph - N/A   Clear
6:47 AM 51.8 °F 44.6 °F 76% 30.07 in 10.0 mi SE 3.5 mph - N/A   Clear
6:55 AM 52.0 °F 45.5 °F 79% 30.07 in 10.0 mi SSE 3.5 mph - N/A   Clear
6:56 AM 52.0 °F 45.5 °F 79% 30.07 in 10.0 mi SSE 4.6 mph - N/A   Clear
7:15 AM 50.5 °F 45.9 °F 84% 30.08 in 10.0 mi SSE 4.6 mph - N/A   Clear
7:35 AM 50.0 °F 46.2 °F 87% 30.09 in 10.0 mi Calm Calm - N/A   Clear
7:47 AM 51.8 °F 46.4 °F 82% 30.09 in 10.0 mi ESE 3.5 mph - N/A   Clear
7:55 AM 52.0 °F 47.5 °F 85% 30.10 in 10.0 mi ESE 3.5 mph - N/A   Clear
8:15 AM 54.5 °F 48.4 °F 80% 30.10 in 10.0 mi Calm Calm - N/A   Clear
8:35 AM 56.3 °F 48.2 °F 74% 30.10 in 10.0 mi Calm Calm - N/A   Clear
8:36 AM 56.3 °F 48.4 °F 75% 30.10 in 10.0 mi Calm Calm - N/A   Clear
8:47 AM 57.2 °F 48.2 °F 72% 30.10 in 10.0 mi Calm Calm - N/A   Clear
8:55 AM 58.1 °F 48.2 °F 70% 30.10 in 10.0 mi SE 5.8 mph - N/A   Clear
9:15 AM 59.2 °F 47.8 °F 66% 30.10 in 10.0 mi SE 5.8 mph - N/A   Clear
9:35 AM 62.1 °F 48.7 °F 62% 30.10 in 10.0 mi SE 4.6 mph - N/A   Clear
9:36 AM 62.2 °F 48.6 °F 61% 30.10 in 10.0 mi SSE 4.6 mph - N/A   Clear
9:47 AM 62.6 °F 46.4 °F 55% 30.10 in 10.0 mi SSE 9.2 mph - N/A   Clear
9:55 AM 63.0 °F 45.9 °F 54% 30.10 in 10.0 mi SE 9.2 mph - N/A   Clear
10:15 AM 64.2 °F 44.8 °F 49% 30.10 in 10.0 mi SE 9.2 mph - N/A   Clear
10:35 AM 65.7 °F 44.1 °F 46% 30.10 in 10.0 mi SE 10.4 mph - N/A   Clear
10:47 AM 68.0 °F 44.6 °F 43% 30.10 in 10.0 mi SSE 9.2 mph - N/A   Clear
10:55 AM 68.2 °F 44.4 °F 42% 30.10 in 10.0 mi SSE 9.2 mph - N/A   Clear
10:56 AM 68.2 °F 44.4 °F 42% 30.10 in 10.0 mi SSE 10.4 mph - N/A   Clear
11:35 AM 70.7 °F 45.3 °F 40% 30.08 in 10.0 mi SE 6.9 mph - N/A   Clear
11:36 AM 70.9 °F 45.5 °F 40% 30.08 in 10.0 mi SE 6.9 mph - N/A   Clear
12:47 PM 77.0 °F 44.6 °F 32% 30.04 in 10.0 mi South 11.5 mph 17.3 mph N/A   Clear
1:55 PM 79.5 °F 44.4 °F 29% 30.01 in 10.0 mi SSW 9.2 mph - N/A   Clear
1:56 PM 79.9 °F 44.6 °F 29% 30.01 in 10.0 mi South 8.1 mph - N/A   Clear
2:15 PM 80.6 °F 43.0 °F 26% 30.01 in 10.0 mi SSE 10.4 mph - N/A   Clear
2:35 PM 82.0 °F 43.9 °F 26% 30.00 in 10.0 mi SSE 10.4 mph - N/A   Clear
2:47 PM 80.6 °F 42.8 °F 26% 30.00 in 10.0 mi SSE 9.2 mph - N/A   Clear
2:55 PM 81.7 °F 43.0 °F 25% 30.00 in 10.0 mi SSE 9.2 mph - N/A   Clear
2:56 PM 81.7 °F 42.8 °F 25% 30.00 in 10.0 mi SSE 10.4 mph - N/A   Clear
3:15 PM 82.6 °F 42.6 °F 24% 30.00 in 10.0 mi South 11.5 mph 19.6 mph N/A   Clear
3:35 PM 83.3 °F 42.8 °F 24% 29.99 in 10.0 mi South 8.1 mph - N/A   Clear
3:47 PM 82.4 °F 41.0 °F 23% 29.99 in 10.0 mi SSE 9.2 mph 17.3 mph N/A   Clear
3:55 PM 82.2 °F 42.1 °F 24% 29.98 in 10.0 mi SE 11.5 mph - N/A   Clear
3:56 PM 82.4 °F 41.9 °F 24% 29.98 in 10.0 mi SSE 10.4 mph - N/A   Clear
4:15 PM 82.6 °F 42.3 °F 24% 29.97 in 10.0 mi SSE 13.8 mph 17.3 mph N/A   Clear
4:35 PM 82.4 °F 42.1 °F 24% 29.98 in 10.0 mi South 10.4 mph 15.0 mph N/A   Clear
4:47 PM 82.4 °F 42.8 °F 25% 29.98 in 10.0 mi South 10.4 mph - N/A   Clear
4:55 PM 81.9 °F 41.9 °F 24% 29.98 in 10.0 mi South 9.2 mph - N/A   Clear
4:56 PM 81.9 °F 41.9 °F 24% 29.98 in 10.0 mi South 9.2 mph - N/A   Clear
5:15 PM 81.5 °F 41.7 °F 24% 29.98 in 10.0 mi South 6.9 mph - N/A   Clear
5:16 PM 81.5 °F 42.1 °F 25% 29.98 in 10.0 mi South 5.8 mph - N/A   Clear
5:35 PM 80.8 °F 42.4 °F 26% 29.98 in 10.0 mi South 6.9 mph - N/A   Clear
5:36 PM 80.8 °F 42.3 °F 25% 29.98 in 10.0 mi South 6.9 mph - N/A   Clear
5:47 PM 80.6 °F 42.8 °F 26% 29.97 in 10.0 mi South 9.2 mph - N/A   Clear
5:55 PM 80.4 °F 43.2 °F 27% 29.96 in 10.0 mi SSE 10.4 mph 17.3 mph N/A   Clear
6:15 PM 77.9 °F 43.2 °F 29% 29.97 in 10.0 mi South 6.9 mph - N/A   Clear
6:16 PM 77.7 °F 43.2 °F 29% 29.97 in 10.0 mi South 6.9 mph - N/A   Clear
6:35 PM 76.3 °F 43.7 °F 31% 29.98 in 10.0 mi SSE 5.8 mph - N/A   Clear
6:47 PM 75.2 °F 42.8 °F 31% 29.98 in 10.0 mi South 4.6 mph - N/A   Clear
6:55 PM 75.4 °F 43.3 °F 32% 29.98 in 10.0 mi South 4.6 mph - N/A   Clear
6:56 PM 75.4 °F 43.5 °F 32% 29.98 in 10.0 mi South 4.6 mph - N/A   Clear
7:15 PM 74.3 °F 43.9 °F 34% 29.98 in 10.0 mi SSE 3.5 mph - N/A   Clear
7:16 PM 74.3 °F 43.9 °F 34% 29.98 in 10.0 mi SSE 3.5 mph - N/A   Clear
7:35 PM 73.9 °F 43.7 °F 34% 29.98 in 10.0 mi SSE 3.5 mph - N/A   Clear
7:36 PM 73.8 °F 43.7 °F 34% 29.98 in 10.0 mi SSE 3.5 mph - N/A   Clear
7:47 PM 73.4 °F 44.6 °F 36% 29.98 in 10.0 mi South 4.6 mph - N/A   Clear
7:55 PM 72.7 °F 44.6 °F 37% 29.98 in 10.0 mi SSE 4.6 mph - N/A   Clear
8:15 PM 72.1 °F 44.6 °F 37% 29.98 in 10.0 mi SSE 5.8 mph - N/A   Clear
8:16 PM 72.3 °F 44.6 °F 37% 29.98 in 10.0 mi SSE 5.8 mph - N/A   Clear
8:35 PM 72.5 °F 45.3 °F 38% 29.99 in 10.0 mi SSE 5.8 mph - N/A   Clear
8:47 PM 71.6 °F 44.6 °F 38% 30.00 in 10.0 mi SSE 4.6 mph - N/A   Clear
8:55 PM 72.0 °F 45.5 °F 39% 30.00 in 10.0 mi SE 6.9 mph - N/A   Clear
9:15 PM 71.6 °F 45.7 °F 39% 30.00 in 10.0 mi SSE 5.8 mph - N/A   Clear
9:16 PM 71.4 °F 45.7 °F 40% 30.00 in 10.0 mi SSE 6.9 mph - N/A   Clear
9:35 PM 70.5 °F 46.0 °F 42% 30.00 in 10.0 mi SSE 3.5 mph - N/A   Clear
9:55 PM 69.8 °F 46.4 °F 43% 29.98 in 10.0 mi SSE 5.8 mph - N/A   Clear
10:15 PM 69.3 °F 46.8 °F 45% 29.98 in 10.0 mi SSE 4.6 mph - N/A   Clear
10:16 PM 69.1 °F 46.8 °F 45% 29.98 in 10.0 mi SSE 4.6 mph - N/A   Clear
10:35 PM 69.1 °F 47.3 °F 46% 29.98 in 10.0 mi SSE 3.5 mph - N/A   Clear
10:55 PM 68.7 °F 48.0 °F 48% 29.98 in 10.0 mi SE 4.6 mph - N/A   Clear
11:15 PM 67.8 °F 48.6 °F 50% 29.97 in 10.0 mi SSE 4.6 mph - N/A   Clear
11:35 PM 67.5 °F 48.7 °F 51% 29.97 in 10.0 mi SSE 5.8 mph - N/A   Clear
11:36 PM 67.3 °F 48.6 °F 51% 29.97 in 10.0 mi SSE 5.8 mph - N/A   Clear
11:55 PM 66.7 °F 49.1 °F 53% 29.96 in 10.0 mi SSE 5.8 mph - N/A   Clear